VTK504 URMM-UZTT

Flight info

Callsign VTK504
Flight time N/A
Altitude 35000
Route OGEMO5M OGEMO B967 ROKMO R710 UP A102 BABUR N102 KORAG N144 EKDUP N193 DIBAD DIBAD2T
Aircraft A320/M-SDE3FGHIRWY/LB1

Departure

Time 2026-04-27 10:35
Airport Mineralnye Vody Airport (URMM)

Arrival

Time N/A
Airport Tashkent International Airport (UZTT)
Time Latitude Longitude Altitude Speed Heading
2026-04-27 10:08 44.21756 43.08926 1051 ft 0 kts 212°
2026-04-27 10:29 44.21757 43.08926 1051 ft 2 kts 212°
2026-04-27 10:29 44.21771 43.08939 1051 ft 2 kts 212°
2026-04-27 10:29 44.21786 43.08952 1051 ft 2 kts 212°
2026-04-27 10:29 44.21800 43.08965 1051 ft 2 kts 212°
2026-04-27 10:30 44.21816 43.08973 1051 ft 2 kts 188°
2026-04-27 10:30 44.21833 43.08977 1051 ft 2 kts 172°
2026-04-27 10:30 44.21845 43.08971 1051 ft 0 kts 118°
2026-04-27 10:31 44.21845 43.08972 1051 ft 1 kts 118°
2026-04-27 10:31 44.21819 43.09038 1051 ft 15 kts 118°
2026-04-27 10:31 44.21752 43.09210 1051 ft 25 kts 120°
2026-04-27 10:32 44.21641 43.09425 1051 ft 28 kts 122°
2026-04-27 10:32 44.21545 43.09640 1051 ft 25 kts 123°
2026-04-27 10:32 44.21529 43.09851 1051 ft 22 kts 78°
2026-04-27 10:32 44.21560 43.10058 1051 ft 22 kts 78°
2026-04-27 10:33 44.21617 43.10231 1051 ft 19 kts 43°
2026-04-27 10:33 44.21650 43.10263 1050 ft 0 kts 30°
2026-04-27 10:33 44.21651 43.10264 1050 ft 1 kts 30°
2026-04-27 10:33 44.21709 43.10310 1050 ft 20 kts 29°
2026-04-27 10:34 44.21807 43.10219 1052 ft 19 kts 300°
2026-04-27 10:34 44.21915 43.09970 1055 ft 56 kts 302°
2026-04-27 10:34 44.22240 43.09264 1055 ft 115 kts 303°
2026-04-27 10:34 44.22763 43.08128 1055 ft 161 kts 302°
2026-04-27 10:35 44.23383 43.06781 1557 ft 166 kts 303°
2026-04-27 10:35 44.23994 43.05427 2412 ft 164 kts 302°
2026-04-27 10:35 44.24596 43.04078 3035 ft 169 kts 302°
2026-04-27 10:35 44.25253 43.02607 3249 ft 191 kts 302°
2026-04-27 10:36 44.26004 43.00932 3543 ft 215 kts 302°
2026-04-27 10:36 44.27020 42.99273 4013 ft 236 kts 320°
2026-04-27 10:36 44.28471 42.98126 4778 ft 246 kts 335°
2026-04-27 10:36 44.30142 42.97488 5523 ft 257 kts 348°
2026-04-27 10:37 44.31977 42.97615 6197 ft 276 kts
2026-04-27 10:37 44.33768 42.98789 6828 ft 297 kts 34°
2026-04-27 10:37 44.35159 43.00975 7509 ft 309 kts 60°
2026-04-27 10:37 44.35850 43.03819 8207 ft 314 kts 86°
2026-04-27 10:38 44.35685 43.06819 8926 ft 309 kts 112°
2026-04-27 10:38 44.34971 43.09633 9685 ft 310 kts 117°
2026-04-27 10:38 44.34243 43.12494 10336 ft 321 kts 112°
2026-04-27 10:38 44.33738 43.15655 10510 ft 348 kts 105°
2026-04-27 10:39 44.33590 43.19144 10647 ft 375 kts 89°
2026-04-27 10:39 44.33825 43.22867 10772 ft 397 kts 86°
2026-04-27 10:39 44.34139 43.26786 10964 ft 414 kts 84°
2026-04-27 10:39 44.34663 43.30762 11443 ft 422 kts 76°
2026-04-27 10:40 44.35675 43.34631 11970 ft 428 kts 63°
2026-04-27 10:40 44.37102 43.38282 12503 ft 433 kts 60°
2026-04-27 10:40 44.38617 43.41941 13032 ft 438 kts 59°
2026-04-27 10:40 44.40173 43.45610 13556 ft 442 kts 58°
2026-04-27 10:41 44.41744 43.49298 14050 ft 446 kts 58°
2026-04-27 10:41 44.43333 43.53058 14521 ft 450 kts 59°
2026-04-27 10:41 44.44915 43.56847 14996 ft 453 kts 59°
2026-04-27 10:41 44.46499 43.60676 15463 ft 457 kts 59°
2026-04-27 10:42 44.48089 43.64532 15927 ft 460 kts 59°
2026-04-27 10:42 44.49706 43.68406 16377 ft 463 kts 58°
2026-04-27 10:42 44.51305 43.72207 16812 ft 466 kts 58°
2026-04-27 10:42 44.52971 43.76148 17242 ft 469 kts 58°
2026-04-27 10:43 44.53462 43.77307 17390 ft 470 kts 58°
2026-04-27 10:43 44.56344 43.84111 18101 ft 477 kts 58°
2026-04-27 10:43 44.58035 43.88117 18497 ft 480 kts 58°
2026-04-27 10:43 44.59734 43.92163 18861 ft 483 kts 58°
2026-04-27 10:44 44.61433 43.96220 19236 ft 485 kts 58°
2026-04-27 10:44 44.63137 44.00307 19602 ft 488 kts 58°
2026-04-27 10:44 44.64851 44.04431 19961 ft 490 kts 58°
2026-04-27 10:44 44.66562 44.08558 20311 ft 492 kts 58°
2026-04-27 10:45 44.68290 44.12729 20631 ft 495 kts 58°
2026-04-27 10:45 44.70022 44.16907 20956 ft 498 kts 58°
2026-04-27 10:45 44.71770 44.21119 21297 ft 500 kts 58°
2026-04-27 10:45 44.73521 44.25340 21630 ft 502 kts 58°
2026-04-27 10:46 44.75281 44.29589 21970 ft 504 kts 58°
2026-04-27 10:46 44.77045 44.33853 22307 ft 506 kts 58°
2026-04-27 10:46 44.78815 44.38134 22610 ft 509 kts 58°
2026-04-27 10:46 44.80593 44.42448 22905 ft 511 kts 58°
2026-04-27 10:47 44.82371 44.46781 23205 ft 513 kts 58°
2026-04-27 10:47 44.84165 44.51127 23492 ft 515 kts 57°
2026-04-27 10:47 44.86213 44.55249 23751 ft 515 kts 50°
2026-04-27 10:47 44.88383 44.59259 23982 ft 517 kts 50°
2026-04-27 10:48 44.90560 44.63288 24228 ft 518 kts 50°
2026-04-27 10:48 44.92744 44.67334 24476 ft 520 kts 51°
2026-04-27 10:48 44.94931 44.71393 24702 ft 522 kts 51°
2026-04-27 10:48 44.97123 44.75472 25001 ft 522 kts 51°
2026-04-27 10:49 44.99309 44.79543 25343 ft 521 kts 51°
2026-04-27 10:49 45.01489 44.83606 25677 ft 520 kts 51°
2026-04-27 10:49 45.03661 44.87664 26013 ft 519 kts 51°
2026-04-27 10:49 45.05834 44.91734 26357 ft 518 kts 51°
2026-04-27 10:50 45.07999 44.95798 26672 ft 519 kts 51°
2026-04-27 10:50 45.10161 44.99864 27000 ft 518 kts 51°
2026-04-27 10:50 45.12323 45.03933 27332 ft 518 kts 51°
2026-04-27 10:50 45.14482 45.08004 27676 ft 517 kts 52°
2026-04-27 10:51 45.16635 45.12066 28038 ft 516 kts 52°
2026-04-27 10:51 45.18786 45.16129 28397 ft 516 kts 52°
2026-04-27 10:51 45.20930 45.20197 28754 ft 515 kts 53°
2026-04-27 10:51 45.22844 45.24475 29071 ft 516 kts 59°
2026-04-27 10:52 45.24629 45.28880 29424 ft 516 kts 59°
2026-04-27 10:52 45.26406 45.33280 29767 ft 515 kts 60°
2026-04-27 10:52 45.28183 45.37687 30113 ft 514 kts 60°
2026-04-27 10:52 45.29940 45.42093 30416 ft 514 kts 60°
2026-04-27 10:53 45.31680 45.46505 30719 ft 513 kts 60°
2026-04-27 10:53 45.35138 45.55350 31282 ft 513 kts 60°
2026-04-27 10:53 45.36866 45.59771 31574 ft 512 kts 60°
2026-04-27 10:54 45.38592 45.64183 31864 ft 511 kts 60°
2026-04-27 10:54 45.40318 45.68589 32161 ft 511 kts 60°
2026-04-27 10:54 45.42041 45.72995 32467 ft 510 kts 61°
2026-04-27 10:54 45.43758 45.77392 32759 ft 509 kts 61°
2026-04-27 10:55 45.45474 45.81791 33057 ft 509 kts 61°
2026-04-27 10:55 45.47186 45.86183 33345 ft 508 kts 61°
2026-04-27 10:55 45.48893 45.90570 33644 ft 507 kts 61°
2026-04-27 10:55 45.50596 45.94956 33944 ft 506 kts 61°
2026-04-27 10:56 45.52290 45.99336 34200 ft 505 kts 61°
2026-04-27 10:56 45.53978 46.03719 34453 ft 505 kts 61°
2026-04-27 10:56 45.55665 46.08106 34704 ft 504 kts 61°
2026-04-27 10:56 45.57343 46.12467 34927 ft 504 kts 62°
2026-04-27 10:57 45.59032 46.16853 34995 ft 506 kts 61°
2026-04-27 10:57 45.62411 46.25645 34993 ft 506 kts 61°
2026-04-27 10:58 45.65773 46.34444 35002 ft 505 kts 62°
2026-04-27 10:58 45.69125 46.43260 35002 ft 505 kts 62°
2026-04-27 10:59 45.72475 46.52084 34991 ft 505 kts 62°
2026-04-27 10:59 45.75828 46.60907 34997 ft 505 kts 62°
2026-04-27 11:00 45.80826 46.74159 35006 ft 505 kts 62°
2026-04-27 11:00 45.84143 46.83028 34997 ft 506 kts 62°
2026-04-27 11:01 45.87458 46.91908 34993 ft 506 kts 62°
2026-04-27 11:01 45.90198 47.01129 34988 ft 503 kts 78°
2026-04-27 11:02 45.90943 47.10988 34989 ft 496 kts 96°
2026-04-27 11:02 45.89676 47.20574 34979 ft 487 kts 111°
2026-04-27 11:03 45.87715 47.29850 34975 ft 487 kts 111°
2026-04-27 11:03 45.85751 47.39136 34965 ft 487 kts 111°
2026-04-27 11:04 45.83780 47.48408 34986 ft 487 kts 111°
2026-04-27 11:04 45.81797 47.57659 34988 ft 486 kts 111°
2026-04-27 11:05 45.79813 47.66900 34986 ft 486 kts 111°
2026-04-27 11:05 45.77830 47.76128 34962 ft 485 kts 111°
2026-04-27 11:06 45.75840 47.85336 34982 ft 485 kts 111°
2026-04-27 11:06 45.73839 47.94517 34988 ft 484 kts 111°
2026-04-27 11:07 45.71838 48.03678 34986 ft 483 kts 111°
2026-04-27 11:07 45.69832 48.12825 34978 ft 483 kts 111°
2026-04-27 11:08 45.67816 48.21961 34973 ft 482 kts 111°
2026-04-27 11:08 45.65794 48.31080 34967 ft 482 kts 111°
2026-04-27 11:09 45.63771 48.40194 34962 ft 482 kts 111°
2026-04-27 11:09 45.61743 48.49291 34959 ft 482 kts 111°
2026-04-27 11:10 45.59700 48.58381 34941 ft 481 kts 111°
2026-04-27 11:10 45.57655 48.67447 34957 ft 481 kts 111°
2026-04-27 11:11 45.55606 48.76508 34964 ft 481 kts 111°
2026-04-27 11:11 45.53553 48.85563 34963 ft 481 kts 111°
2026-04-27 11:12 45.51498 48.94593 34953 ft 480 kts 111°
2026-04-27 11:12 45.49427 49.03633 34963 ft 480 kts 111°
2026-04-27 11:13 45.47343 49.12650 34964 ft 480 kts 111°
2026-04-27 11:13 45.45263 49.21644 34965 ft 479 kts 111°
2026-04-27 11:14 45.43183 49.30641 34946 ft 479 kts 111°
2026-04-27 11:14 45.41097 49.39618 34951 ft 478 kts 111°
2026-04-27 11:15 45.38996 49.48585 34956 ft 478 kts 111°
2026-04-27 11:15 45.37009 49.57600 34959 ft 480 kts 109°
2026-04-27 11:16 45.35239 49.66732 34963 ft 480 kts 108°
2026-04-27 11:16 45.33480 49.75864 34951 ft 480 kts 109°
2026-04-27 11:17 45.31655 49.84943 34952 ft 479 kts 109°
2026-04-27 11:17 45.29787 49.94008 34957 ft 479 kts 109°
2026-04-27 11:18 45.27921 50.03053 34956 ft 479 kts 109°
2026-04-27 11:18 45.26055 50.12112 34946 ft 479 kts 109°
2026-04-27 11:19 45.24187 50.21153 34950 ft 479 kts 109°
2026-04-27 11:19 45.22308 50.30193 34954 ft 479 kts 110°
2026-04-27 11:20 45.20421 50.39235 34963 ft 479 kts 110°
2026-04-27 11:20 45.18534 50.48260 34965 ft 478 kts 110°
2026-04-27 11:21 45.16637 50.57277 34953 ft 478 kts 110°
2026-04-27 11:21 45.14743 50.66273 34955 ft 477 kts 110°
2026-04-27 11:22 45.12844 50.75256 34953 ft 477 kts 110°
2026-04-27 11:22 45.10930 50.84228 34953 ft 477 kts 111°
2026-04-27 11:23 45.08996 50.93179 34938 ft 476 kts 111°
2026-04-27 11:23 45.07073 51.02119 34949 ft 475 kts 111°
2026-04-27 11:24 45.05157 51.11038 34945 ft 475 kts 111°
2026-04-27 11:24 45.03226 51.19936 34949 ft 474 kts 111°
2026-04-27 11:25 45.01285 51.28799 34952 ft 473 kts 111°
2026-04-27 11:25 44.99345 51.37652 34936 ft 472 kts 112°
2026-04-27 11:26 44.97407 51.46503 34941 ft 472 kts 112°
2026-04-27 11:26 44.95470 51.55326 34943 ft 472 kts 112°
2026-04-27 11:27 44.93524 51.64147 34942 ft 471 kts 112°
2026-04-27 11:27 44.91566 51.72950 34923 ft 471 kts 112°
2026-04-27 11:28 44.89596 51.81745 34927 ft 471 kts 112°
2026-04-27 11:28 44.87625 51.90528 34925 ft 471 kts 112°
2026-04-27 11:29 44.85640 51.99325 34919 ft 472 kts 112°
2026-04-27 11:29 44.83650 52.08119 34924 ft 472 kts 112°
2026-04-27 11:30 44.81651 52.16917 34932 ft 473 kts 112°
2026-04-27 11:30 44.79641 52.25723 34935 ft 473 kts 112°
2026-04-27 11:31 44.77616 52.34507 34940 ft 473 kts 112°
2026-04-27 11:31 44.75580 52.43284 34939 ft 472 kts 112°
2026-04-27 11:32 44.73537 52.52047 34920 ft 473 kts 112°
2026-04-27 11:32 44.71490 52.60815 34919 ft 473 kts 112°
2026-04-27 11:33 44.69441 52.69565 34920 ft 473 kts 112°
2026-04-27 11:33 44.67387 52.78287 34926 ft 473 kts 113°
2026-04-27 11:34 44.65324 52.87034 34909 ft 473 kts 112°
2026-04-27 11:34 44.63259 52.95757 34916 ft 472 kts 113°
2026-04-27 11:35 44.61179 53.04473 34924 ft 472 kts 113°
2026-04-27 11:35 44.59101 53.13151 34929 ft 472 kts 113°
2026-04-27 11:36 44.57017 53.21838 34937 ft 472 kts 113°
2026-04-27 11:36 44.54923 53.30548 34931 ft 472 kts 113°
2026-04-27 11:37 44.52813 53.39262 34927 ft 472 kts 113°
2026-04-27 11:37 44.50703 53.47940 34930 ft 472 kts 113°
2026-04-27 11:38 44.48597 53.56573 34944 ft 473 kts 113°
2026-04-27 11:38 44.46476 53.65275 34927 ft 472 kts 113°
2026-04-27 11:39 44.44354 53.73926 34931 ft 472 kts 113°
2026-04-27 11:39 44.42224 53.82546 34937 ft 472 kts 113°
2026-04-27 11:40 44.40084 53.91196 34941 ft 472 kts 113°
2026-04-27 11:40 44.37935 53.99851 34933 ft 472 kts 113°
2026-04-27 11:41 44.35783 54.08487 34943 ft 472 kts 113°
2026-04-27 11:41 44.33625 54.17116 34956 ft 471 kts 113°
2026-04-27 11:42 44.31467 54.25713 34960 ft 471 kts 113°